Location: Old Broadwell Mill Observatory
(33.8015°N, 85.8137°W)
Time: 07:20:03
(UTC-05:00)

Amateur Radio Satellites - All Passes

Search period start: 28 July 2014 06:50
Search period end: 29 July 2014 06:50
Location: Old Broadwell Mill Observatory, 33.8015°N, 85.8137°W

Satellite Date Start Highest point End Downlink Frequencies (MHz)
Time Altitude Azimuth
Saudisat 1A 28 Jul 06:51:53 06:55:36 27° 112° (ESE) 06:59:20 436.775 MHz
PANSAT 28 Jul 06:52:36 06:56:11 37° 180° (S) 06:59:46 not established
STRAND 1 28 Jul 06:56:19 07:01:27 74° 258° (WSW) 07:06:37 ?
JAS-2 28 Jul 06:59:07 07:04:59 77° 102° (ESE) 07:10:17 435.800 - 435.900 CW/SSB, 435.910 FM
SO-67 28 Jul 07:21:04 07:24:08 28° 97° (E) 07:27:10 435.3500 MHz FM
Hamsat 28 Jul 07:50:52 07:53:26 16° 291° (WNW) 07:56:00 145.90 MHz
MaSat-1 28 Jul 07:52:13 07:57:11 43° 253° (WSW) 08:01:47 437.345 MHz
KITSAT 1 28 Jul 07:59:23 08:05:51 26° 311° (NW) 08:12:22 435.175 FM
ISS 28 Jul 08:26:48 08:27:50 11° 234° (SW) 08:28:51 145.800 FM
HO-68 28 Jul 08:29:09 08:33:32 17° 93° (E) 08:37:53 435.675 MHz FM
Saudisat 1A 28 Jul 08:31:27 08:35:06 25° 307° (NW) 08:38:47 436.775 MHz
PANSAT 28 Jul 08:32:44 08:36:02 27° 192° (SSW) 08:39:19 not established
JAS-2 28 Jul 08:47:12 08:49:06 12° 301° (WNW) 08:50:56 435.800 - 435.900 CW/SSB, 435.910 FM
SO-67 28 Jul 08:55:30 08:56:53 12° 291° (WNW) 08:58:16 435.3500 MHz FM
Sapphire 28 Jul 09:05:36 09:08:31 14° 50° (NE) 09:11:24 437.095 MHz 1200 baud AX-25 AFSK
PCSat 28 Jul 09:37:49 09:42:30 29° 56° (ENE) 09:47:09 145.825 MHz
UKube-1 28 Jul 10:00:14 10:04:36 79° 103° (ESE) 10:08:56 145.840 MHz, 145.915 MHz
HO-68 28 Jul 10:14:37 10:21:44 72° 288° (WNW) 10:28:48 435.675 MHz FM
PANSAT 28 Jul 10:14:44 10:15:40 11° 204° (SSW) 10:16:35 not established
Oscar 11 28 Jul 10:46:23 10:50:39 58° 285° (WNW) 10:54:54 145.825 FM, Beacon 2401.500 USB
Sapphire 28 Jul 10:47:04 10:52:29 74° 246° (WSW) 10:57:52 437.095 MHz 1200 baud AX-25 AFSK
FUNcube-1 28 Jul 11:05:31 11:09:42 78° 102° (ESE) 11:13:55 145.950 - 145.970 MHz USB
PCSat 28 Jul 11:21:04 11:25:51 32° 252° (WSW) 11:30:37 145.825 MHz
SO-50 28 Jul 11:24:58 11:27:45 17° 109° (ESE) 11:30:34 436.795 FM
HO-68 28 Jul 12:06:34 12:08:10 11° 305° (NW) 12:09:46 435.675 MHz FM
Oscar 16 28 Jul 12:28:02 12:31:28 19° 66° (ENE) 12:34:55 437.025 USB, Beacon 2401.1428
RS-15 28 Jul 12:32:18 12:42:39 44° 108° (ESE) 12:52:41 29.354 - 29.394 USB, Beacon 29.352 USB
ITAMSAT 1 28 Jul 12:48:57 12:51:05 13° 63° (ENE) 12:53:13 435.822 SSB
JAS-1B 28 Jul 12:51:42 12:57:17 18° 55° (NE) 13:03:08 435.800 - 435.900 CW/SSB
SO-50 28 Jul 13:03:45 13:07:56 40° 304° (WNW) 13:12:12 436.795 FM
AO-27 28 Jul 13:06:14 13:09:54 20° 67° (ENE) 13:13:35 436.795 MHz FM
Uribyol 2 28 Jul 13:06:43 13:10:29 21° 67° (ENE) 13:14:16 436.500 FM
Gurwin Techsat 1B 28 Jul 13:27:02 13:28:48 12° 63° (ENE) 13:30:34 435.225 FM
UOSAT-12 28 Jul 13:28:49 13:32:21 23° 110° (ESE) 13:35:57 437.025 FM, 437.400 FM
Oscar 19 28 Jul 13:36:59 13:42:06 89° 77° (ENE) 13:47:14 437.125 CW, 437.150 USB
AO-Echo 28 Jul 13:58:08 14:03:21 67° 75° (ENE) 14:08:39 ?
KITSAT 1 28 Jul 14:00:54 14:06:08 18° 43° (NE) 14:11:19 435.175 FM
Oscar 16 28 Jul 14:05:36 14:10:27 44° 261° (W) 14:15:20 437.025 USB, Beacon 2401.1428
ITAMSAT 1 28 Jul 14:24:45 14:29:56 69° 258° (WSW) 14:35:09 435.822 SSB
JAS-1B 28 Jul 14:37:31 14:46:05 82° 74° (ENE) 14:55:53 435.800 - 435.900 CW/SSB
TMSAT-1 28 Jul 14:39:06 14:44:06 45° 72° (ENE) 14:49:07 436.925 FM
AO-27 28 Jul 14:44:08 14:49:04 42° 261° (W) 14:54:01 436.795 MHz FM
RS-15 28 Jul 14:44:13 14:54:47 47° 307° (NW) 15:05:14 29.354 - 29.394 USB, Beacon 29.352 USB
Uribyol 2 28 Jul 14:44:47 14:49:39 40° 261° (W) 14:54:31 436.500 FM
Gurwin Techsat 1B 28 Jul 15:02:46 15:08:04 76° 258° (WSW) 15:13:23 435.225 FM
UOSAT-12 28 Jul 15:08:10 15:12:17 32° 305° (NW) 15:16:29 437.025 FM, 437.400 FM
AO-Echo 28 Jul 15:40:29 15:42:30 12° 269° (W) 15:44:32 ?
AO-7 28 Jul 15:41:38 15:49:39 53° 67° (ENE) 15:57:41 29.400 - 29.500 MHz
KITSAT 1 28 Jul 15:54:36 16:02:43 84° 63° (ENE) 16:10:46 435.175 FM
Uosat F 28 Jul 15:55:03 15:59:57 54° 73° (ENE) 16:04:52 435.120 FM
TMSAT-1 28 Jul 16:20:35 16:24:10 18° 266° (W) 16:27:46 436.925 FM
JAS-1B 28 Jul 16:31:42 16:37:34 20° 272° (W) 16:43:57 435.800 - 435.900 CW/SSB
OPAL 28 Jul 16:48:30 16:53:36 79° 105° (ESE) 16:58:44 ?
Saudisat 1A 28 Jul 17:00:54 17:05:19 85° 61° (ENE) 17:09:42 436.775 MHz
Hamsat 28 Jul 17:04:42 17:07:19 16° 69° (ENE) 17:09:56 145.90 MHz
JAS-2 28 Jul 17:05:43 17:11:59 28° 66° (ENE) 17:17:59 435.800 - 435.900 CW/SSB, 435.910 FM
RS-15 28 Jul 17:05:54 17:10:54 14° 337° (NNW) 17:15:55 29.354 - 29.394 USB, Beacon 29.352 USB
AO-7 28 Jul 17:35:37 17:42:36 30° 262° (W) 17:49:39 29.400 - 29.500 MHz
Uosat F 28 Jul 17:36:29 17:39:00 14° 267° (W) 17:41:30 435.120 FM
KITSAT 1 28 Jul 17:52:36 17:57:04 16° 259° (WSW) 18:01:32 435.175 FM
OPAL 28 Jul 18:30:36 18:31:48 11° 299° (WNW) 18:32:59 ?
Hamsat 28 Jul 18:39:16 18:43:00 32° 263° (W) 18:46:46 145.90 MHz
JAS-2 28 Jul 18:48:51 18:56:32 57° 260° (W) 19:03:54 435.800 - 435.900 CW/SSB, 435.910 FM
STRAND 1 28 Jul 19:11:04 19:16:03 52° 100° (E) 19:20:59 ?
SO-67 28 Jul 19:22:49 19:26:15 65° 260° (W) 19:29:42 435.3500 MHz FM
RS-15 28 Jul 19:27:16 19:30:43 12° 17° (NNE) 19:34:10 29.354 - 29.394 USB, Beacon 29.352 USB
MaSat-1 28 Jul 20:04:46 20:06:34 13° 98° (E) 20:08:28 437.345 MHz
HO-68 28 Jul 20:38:24 20:45:23 59° 70° (ENE) 20:52:24 435.675 MHz FM
STRAND 1 28 Jul 20:51:47 20:54:45 16° 295° (WNW) 20:57:42 ?
UKube-1 28 Jul 20:52:00 20:56:04 40° 73° (ENE) 21:00:10 145.840 MHz, 145.915 MHz
Oscar 11 28 Jul 21:37:19 21:41:34 65° 76° (ENE) 21:45:50 145.825 FM, Beacon 2401.500 USB
RS-15 28 Jul 21:37:40 21:47:43 38° 49° (NE) 21:58:01 29.354 - 29.394 USB, Beacon 29.352 USB
SO-50 28 Jul 21:38:33 21:43:17 61° 59° (ENE) 21:48:03 436.795 FM
MaSat-1 28 Jul 21:39:33 21:43:14 39° 298° (WNW) 21:47:32 437.345 MHz
ISS 28 Jul 21:53:19 21:54:32 12° 126° (SE) 21:55:46 145.800 FM
FUNcube-1 28 Jul 21:58:18 22:02:19 37° 73° (ENE) 22:06:16 145.950 - 145.970 MHz USB
HO-68 28 Jul 22:28:09 22:33:24 22° 265° (W) 22:38:40 435.675 MHz FM
UKube-1 28 Jul 22:30:07 22:32:25 14° 266° (W) 22:34:43 145.840 MHz, 145.915 MHz
SO-50 28 Jul 23:21:22 23:23:20 12° 253° (WSW) 23:25:18 436.795 FM
ISS 28 Jul 23:27:39 23:30:53 50° 319° (NW) 23:34:09 145.800 FM
FUNcube-1 28 Jul 23:36:24 23:38:48 15° 266° (W) 23:41:11 145.950 - 145.970 MHz USB
UOSAT-12 28 Jul 23:40:52 23:45:36 74° 61° (ENE) 23:50:14 437.025 FM, 437.400 FM
Sapphire 28 Jul 23:42:47 23:47:07 25° 107° (ESE) 23:51:28 437.095 MHz 1200 baud AX-25 AFSK
RS-15 28 Jul 23:49:41 00:00:28 59° 248° (WSW) 00:11:43 29.354 - 29.394 USB, Beacon 29.352 USB
PCSat 29 Jul 00:15:05 00:20:21 57° 112° (ESE) 00:25:39 145.825 MHz
AO-40 29 Jul 00:57:13 03:09:20 20° 114° (ESE) 04:18:05 Beacon 2401.320
Sapphire 29 Jul 01:25:22 01:30:18 36° 302° (WNW) 01:35:16 437.095 MHz 1200 baud AX-25 AFSK
Oscar 19 29 Jul 01:52:43 01:57:39 44° 99° (E) 02:02:33 437.125 CW, 437.150 USB
PCSat 29 Jul 02:00:30 02:04:07 18° 308° (NW) 02:07:46 145.825 MHz
AO-Echo 29 Jul 02:10:20 02:14:39 29° 96° (E) 02:18:50 ?
Oscar 16 29 Jul 02:20:54 02:26:05 90° 288° (WNW) 02:31:16 437.025 USB, Beacon 2401.1428
JAS-1B 29 Jul 02:30:00 02:38:03 35° 93° (E) 02:44:59 435.800 - 435.900 CW/SSB
ITAMSAT 1 29 Jul 02:41:43 02:46:50 60° 101° (E) 02:51:54 435.822 SSB
TMSAT-1 29 Jul 02:59:27 03:03:43 24° 96° (E) 03:07:58 436.925 FM
AO-27 29 Jul 03:00:52 03:06:04 86° 284° (WNW) 03:11:14 436.795 MHz FM
Uribyol 2 29 Jul 03:01:08 03:06:19 82° 284° (WNW) 03:11:27 436.500 FM
PANSAT 29 Jul 03:10:53 03:11:46 11° 156° (SSE) 03:12:39 not established
Gurwin Techsat 1B 29 Jul 03:23:03 03:28:19 61° 101° (E) 03:33:32 435.225 FM
Oscar 19 29 Jul 03:33:05 03:36:37 19° 293° (WNW) 03:40:09 437.125 CW, 437.150 USB
AO-7 29 Jul 03:49:06 03:54:58 21° 95° (E) 04:00:46 29.400 - 29.500 MHz
AO-Echo 29 Jul 03:49:10 03:53:16 26° 291° (WNW) 03:57:16 ?
OPAL 29 Jul 03:59:49 04:04:46 90° 266° (W) 04:09:44 ?
Uosat F 29 Jul 04:07:29 04:11:25 23° 96° (E) 04:15:18 435.120 FM
JAS-1B 29 Jul 04:19:59 04:28:40 47° 293° (WNW) 04:36:08 435.800 - 435.900 CW/SSB
ITAMSAT 1 29 Jul 04:23:08 04:25:46 14° 296° (WNW) 04:28:23 435.822 SSB
KITSAT 1 29 Jul 04:26:50 04:31:31 17° 101° (ESE) 04:36:11 435.175 FM
TMSAT-1 29 Jul 04:38:55 04:43:37 34° 290° (WNW) 04:48:19 436.925 FM
PANSAT 29 Jul 04:48:07 04:51:24 27° 168° (SSE) 04:54:42 not established
Gurwin Techsat 1B 29 Jul 05:04:57 05:07:42 14° 296° (WNW) 05:10:27 435.225 FM
AO-7 29 Jul 05:40:00 05:48:16 71° 290° (WNW) 05:56:28 29.400 - 29.500 MHz
Uosat F 29 Jul 05:45:44 05:50:11 33° 290° (WNW) 05:54:36 435.120 FM
ISS 29 Jul 05:59:38 06:02:37 29° 37° (NE) 06:05:36 145.800 FM
MaSat-1 29 Jul 06:01:57 06:05:58 22° 57° (ENE) 06:09:48 437.345 MHz
JAS-2 29 Jul 06:05:13 06:09:37 23° 93° (E) 06:13:45 435.800 - 435.900 CW/SSB, 435.910 FM
KITSAT 1 29 Jul 06:17:48 06:25:54 82° 297° (WNW) 06:34:03 435.175 FM
STRAND 1 29 Jul 06:23:06 06:28:03 51° 73° (ENE) 06:33:01 ?
PANSAT 29 Jul 06:27:39 06:31:15 37° 180° (S) 06:34:50 not established
Hamsat 29 Jul 06:28:16 06:32:31 56° 100° (E) 06:36:47 145.90 MHz
